owner,sensor,date,latitude,longitude,vertical_datum,wind_speed,wind_to_direction,wind_speed_of_gust,qcFlag 
DISL,ioos:station:DISL:MHPA:1,2009-01-01T06:30:00Z,30.6671,-87.9365,8.5,2.39,12.73,-9999.0,'1111122,1111122,1111122' 
DISL,ioos:station:DISL:MHPA:1,2009-01-01T07:00:00Z,30.6671,-87.9365,8.5,2.48,1.594,-9999.0,'1111122,1111122,1111122' 
DISL,ioos:station:DISL:MHPA:1,2009-01-01T07:30:00Z,30.6671,-87.9365,8.5,2.27,13.9,-9999.0,'1111122,1111122,1111122' 
DISL,ioos:station:DISL:MHPA:1,2009-01-01T08:00:00Z,30.6671,-87.9365,8.5,2.68,6.407,-9999.0,'1111122,1111122,1111122' 
DISL,ioos:station:DISL:MHPA:1,2009-01-01T08:30:00Z,30.6671,-87.9365,8.5,2.32,32.05,-9999.0,'1111122,1111122,1111122' 
DISL,ioos:station:DISL:MHPA:1,2009-01-01T09:00:00Z,30.6671,-87.9365,8.5,2.43,33.03,-9999.0,'1111122,1111122,1111122' 
DISL,ioos:station:DISL:MHPA:1,2009-01-01T09:30:00Z,30.6671,-87.9365,8.5,2.77,33.99,-9999.0,'1111122,1111122,1111122' 
DISL,ioos:station:DISL:MHPA:1,2009-01-01T10:00:00Z,30.6671,-87.9365,8.5,2.74,17.77,-9999.0,'1111122,1111122,1111122' 
DISL,ioos:station:DISL:MHPA:1,2009-01-01T10:30:00Z,30.6671,-87.9365,8.5,2.72,19.72,-9999.0,'1111122,1111122,1111122' 
DISL,ioos:station:DISL:MHPA:1,2009-01-01T11:00:00Z,30.6671,-87.9365,8.5,2.5,24.61,-9999.0,'1111122,1111122,1111122' 
DISL,ioos:station:DISL:MHPA:1,2009-01-01T11:30:00Z,30.6671,-87.9365,8.5,2.15,28.84,-9999.0,'1111122,1111122,1111122' 
DISL,ioos:station:DISL:MHPA:1,2009-01-01T12:00:00Z,30.6671,-87.9365,8.5,1.43,24.32,-9999.0,'1111122,1111122,1111122' 
DISL,ioos:station:DISL:MHPA:1,2009-01-01T12:30:00Z,30.6671,-87.9365,8.5,0.79,55.01,-9999.0,'1111122,1111122,1111122' 
DISL,ioos:station:DISL:MHPA:1,2009-01-01T13:00:00Z,30.6671,-87.9365,8.5,1.74,107.2,-9999.0,'1111122,1111122,1111122' 
DISL,ioos:station:DISL:MHPA:1,2009-01-01T13:30:00Z,30.6671,-87.9365,8.5,2.28,68.65,-9999.0,'1111122,1111122,1111122' 
DISL,ioos:station:DISL:MHPA:1,2009-01-01T14:00:00Z,30.6671,-87.9365,8.5,1.96,74.8,-9999.0,'1111122,1111122,1111122' 
DISL,ioos:station:DISL:MHPA:1,2009-01-01T14:30:00Z,30.6671,-87.9365,8.5,2.8,91.0,-9999.0,'1111122,1111122,1111122' 
DISL,ioos:station:DISL:MHPA:1,2009-01-01T15:00:00Z,30.6671,-87.9365,8.5,2.36,106.6,-9999.0,'1111122,1111122,1111122' 
DISL,ioos:station:DISL:MHPA:1,2009-01-01T15:30:00Z,30.6671,-87.9365,8.5,2.14,92.0,-9999.0,'1111122,1111122,1111122' 
DISL,ioos:station:DISL:MHPA:1,2009-01-01T16:00:00Z,30.6671,-87.9365,8.5,3.25,87.9,-9999.0,'1111122,1111122,1111122' 
DISL,ioos:station:DISL:MHPA:1,2009-01-01T16:30:00Z,30.6671,-87.9365,8.5,3.29,103.4,-9999.0,'1111122,1111122,1111122' 
DISL,ioos:station:DISL:MHPA:1,2009-01-01T17:00:00Z,30.6671,-87.9365,8.5,3.23,106.3,-9999.0,'1111122,1111122,1111122' 
DISL,ioos:station:DISL:MHPA:1,2009-01-01T17:30:00Z,30.6671,-87.9365,8.5,3.47,120.9,-9999.0,'1111122,1111122,1111122' 
DISL,ioos:station:DISL:MHPA:1,2009-01-01T18:00:00Z,30.6671,-87.9365,8.5,2.63,111.0,-9999.0,'1111122,1111122,1111122' 
DISL,ioos:station:DISL:MHPA:1,2009-01-01T18:30:00Z,30.6671,-87.9365,8.5,2.92,117.1,-9999.0,'1111122,1111122,1111122' 
DISL,ioos:station:DISL:MHPA:1,2009-01-01T19:00:00Z,30.6671,-87.9365,8.5,3.79,126.8,-9999.0,'1111122,1111122,1111122' 
DISL,ioos:station:DISL:MHPA:1,2009-01-01T19:30:00Z,30.6671,-87.9365,8.5,2.2,106.4,-9999.0,'1111122,1111122,1111122' 
DISL,ioos:station:DISL:MHPA:1,2009-01-01T20:00:00Z,30.6671,-87.9365,8.5,4.72,127.9,-9999.0,'1111122,1111122,1111122' 
DISL,ioos:station:DISL:MHPA:1,2009-01-01T20:30:00Z,30.6671,-87.9365,8.5,4.0,123.5,-9999.0,'1111122,1111122,1111122' 
DISL,ioos:station:DISL:MHPA:1,2009-01-01T21:00:00Z,30.6671,-87.9365,8.5,3.93,122.9,-9999.0,'1111122,1111122,1111122' 
DISL,ioos:station:DISL:MHPA:1,2009-01-01T21:30:00Z,30.6671,-87.9365,8.5,3.19,123.6,-9999.0,'1111122,1111122,1111122' 
DISL,ioos:station:DISL:MHPA:1,2009-01-01T22:00:00Z,30.6671,-87.9365,8.5,3.89,123.9,-9999.0,'1111122,1111122,1111122' 
DISL,ioos:station:DISL:MHPA:1,2009-01-01T22:30:00Z,30.6671,-87.9365,8.5,2.91,109.7,-9999.0,'1111122,1111122,1111122' 
DISL,ioos:station:DISL:MHPA:1,2009-01-01T23:00:00Z,30.6671,-87.9365,8.5,2.98,102.1,-9999.0,'1111122,1111122,1111122' 
DISL,ioos:station:DISL:MHPA:1,2009-01-01T23:30:00Z,30.6671,-87.9365,8.5,3.3,107.3,-9999.0,'1111122,1111122,1111122' 
DISL,ioos:station:DISL:MHPA:1,2009-01-02T00:00:00Z,30.6671,-87.9365,8.5,3.53,88.1,-9999.0,'1111122,1111122,1111122' 
DISL,ioos:station:DISL:MHPA:1,2009-01-02T00:30:00Z,30.6671,-87.9365,8.5,3.33,114.8,-9999.0,'1111122,1111122,1111122' 
DISL,ioos:station:DISL:MHPA:1,2009-01-02T01:00:00Z,30.6671,-87.9365,8.5,3.78,97.4,-9999.0,'1111122,1111122,1111122' 
DISL,ioos:station:DISL:MHPA:1,2009-01-02T01:30:00Z,30.6671,-87.9365,8.5,4.7,102.1,-9999.0,'1111122,1111122,1111122' 
DISL,ioos:station:DISL:MHPA:1,2009-01-02T02:00:00Z,30.6671,-87.9365,8.5,4.16,111.4,-9999.0,'1111122,1111122,1111122' 
DISL,ioos:station:DISL:MHPA:1,2009-01-02T02:30:00Z,30.6671,-87.9365,8.5,3.54,113.8,-9999.0,'1111122,1111122,1111122' 
DISL,ioos:station:DISL:MHPA:1,2009-01-02T03:00:00Z,30.6671,-87.9365,8.5,3.14,114.4,-9999.0,'1111122,1111122,1111122' 
DISL,ioos:station:DISL:MHPA:1,2009-01-02T03:30:00Z,30.6671,-87.9365,8.5,3.78,112.1,-9999.0,'1111122,1111122,1111122' 
DISL,ioos:station:DISL:MHPA:1,2009-01-02T04:00:00Z,30.6671,-87.9365,8.5,3.0,104.7,-9999.0,'1111122,1111122,1111122' 
DISL,ioos:station:DISL:MHPA:1,2009-01-02T04:30:00Z,30.6671,-87.9365,8.5,2.5,98.2,-9999.0,'1111122,1111122,1111122' 
DISL,ioos:station:DISL:MHPA:1,2009-01-02T05:00:00Z,30.6671,-87.9365,8.5,3.2,107.1,-9999.0,'1111122,1111122,1111122' 
DISL,ioos:station:DISL:MHPA:1,2009-01-02T05:30:00Z,30.6671,-87.9365,8.5,3.14,108.4,-9999.0,'1111122,1111122,1111122' 
DISL,ioos:station:DISL:MHPA:1,2009-01-02T06:00:00Z,30.6671,-87.9365,8.5,2.38,91.6,-9999.0,'1111122,1111122,1111122' 
DISL,ioos:station:DISL:MHPA:1,2009-01-02T06:30:00Z,30.6671,-87.9365,8.5,2.68,109.0,-9999.0,'1111122,1111122,1111122' 
DISL,ioos:station:DISL:MHPA:1,2009-01-02T07:00:00Z,30.6671,-87.9365,8.5,1.27,2.504,-9999.0,'1111122,1111122,1111122' 
DISL,ioos:station:DISL:MHPA:1,2009-01-02T07:30:00Z,30.6671,-87.9365,8.5,1.58,83.7,-9999.0,'1111122,1111122,1111122' 
DISL,ioos:station:DISL:MHPA:1,2009-01-02T08:00:00Z,30.6671,-87.9365,8.5,2.18,87.5,-9999.0,'1111122,1111122,1111122' 
DISL,ioos:station:DISL:MHPA:1,2009-01-02T08:30:00Z,30.6671,-87.9365,8.5,2.11,84.5,-9999.0,'1111122,1111122,1111122' 
DISL,ioos:station:DISL:MHPA:1,2009-01-02T09:00:00Z,30.6671,-87.9365,8.5,3.46,105.1,-9999.0,'1111122,1111122,1111122' 
DISL,ioos:station:DISL:MHPA:1,2009-01-02T09:30:00Z,30.6671,-87.9365,8.5,4.78,101.2,-9999.0,'1111122,1111122,1111122' 
DISL,ioos:station:DISL:MHPA:1,2009-01-02T10:00:00Z,30.6671,-87.9365,8.5,3.71,93.0,-9999.0,'1111122,1111122,1111122' 
DISL,ioos:station:DISL:MHPA:1,2009-01-02T10:30:00Z,30.6671,-87.9365,8.5,2.73,145.5,-9999.0,'1111122,1111122,1111122' 
DISL,ioos:station:DISL:MHPA:1,2009-01-02T11:00:00Z,30.6671,-87.9365,8.5,4.69,116.9,-9999.0,'1111122,1111122,1111122' 
DISL,ioos:station:DISL:MHPA:1,2009-01-02T11:30:00Z,30.6671,-87.9365,8.5,4.2,111.7,-9999.0,'1111122,1111122,1111122' 
DISL,ioos:station:DISL:MHPA:1,2009-01-02T12:00:00Z,30.6671,-87.9365,8.5,4.64,113.6,-9999.0,'1111122,1111122,1111122' 
DISL,ioos:station:DISL:MHPA:1,2009-01-02T12:30:00Z,30.6671,-87.9365,8.5,3.49,118.4,-9999.0,'1111122,1111122,1111122' 
DISL,ioos:station:DISL:MHPA:1,2009-01-02T13:00:00Z,30.6671,-87.9365,8.5,3.59,118.0,-9999.0,'1111122,1111122,1111122' 
DISL,ioos:station:DISL:MHPA:1,2009-01-02T13:30:00Z,30.6671,-87.9365,8.5,4.15,106.2,-9999.0,'1111122,1111122,1111122' 
DISL,ioos:station:DISL:MHPA:1,2009-01-02T14:00:00Z,30.6671,-87.9365,8.5,3.45,114.3,-9999.0,'1111122,1111122,1111122' 
DISL,ioos:station:DISL:MHPA:1,2009-01-02T14:30:00Z,30.6671,-87.9365,8.5,3.95,117.3,-9999.0,'1111122,1111122,1111122' 
DISL,ioos:station:DISL:MHPA:1,2009-01-02T15:00:00Z,30.6671,-87.9365,8.5,3.89,136.4,-9999.0,'1111122,1111122,1111122' 
DISL,ioos:station:DISL:MHPA:1,2009-01-02T15:30:00Z,30.6671,-87.9365,8.5,3.9,136.5,-9999.0,'1111122,1111122,1111122' 
DISL,ioos:station:DISL:MHPA:1,2009-01-02T16:00:00Z,30.6671,-87.9365,8.5,2.81,191.8,-9999.0,'1111122,1111122,1111122' 
DISL,ioos:station:DISL:MHPA:1,2009-01-02T16:30:00Z,30.6671,-87.9365,8.5,2.92,205.7,-9999.0,'1111122,1111122,1111122' 
DISL,ioos:station:DISL:MHPA:1,2009-01-02T17:00:00Z,30.6671,-87.9365,8.5,2.26,196.8,-9999.0,'1111122,1111122,1111122' 
DISL,ioos:station:DISL:MHPA:1,2009-01-02T17:30:00Z,30.6671,-87.9365,8.5,3.76,184.2,-9999.0,'1111122,1111122,1111122' 
DISL,ioos:station:DISL:MHPA:1,2009-01-02T18:00:00Z,30.6671,-87.9365,8.5,4.82,182.9,-9999.0,'1111122,1111122,1111122' 
DISL,ioos:station:DISL:MHPA:1,2009-01-02T18:30:00Z,30.6671,-87.9365,8.5,4.94,183.4,-9999.0,'1111122,1111122,1111122' 
DISL,ioos:station:DISL:MHPA:1,2009-01-02T19:00:00Z,30.6671,-87.9365,8.5,5.64,175.6,-9999.0,'1111122,1111122,1111122' 
DISL,ioos:station:DISL:MHPA:1,2009-01-02T19:30:00Z,30.6671,-87.9365,8.5,5.5,169.8,-9999.0,'1111122,1111122,1111122' 
DISL,ioos:station:DISL:MHPA:1,2009-01-02T20:00:00Z,30.6671,-87.9365,8.5,5.13,167.9,-9999.0,'1111122,1111122,1111122' 
DISL,ioos:station:DISL:MHPA:1,2009-01-02T20:30:00Z,30.6671,-87.9365,8.5,6.11,169.3,-9999.0,'1111122,1111122,1111122' 
DISL,ioos:station:DISL:MHPA:1,2009-01-02T21:00:00Z,30.6671,-87.9365,8.5,5.62,164.6,-9999.0,'1111122,1111122,1111122' 
DISL,ioos:station:DISL:MHPA:1,2009-01-02T21:30:00Z,30.6671,-87.9365,8.5,4.75,170.1,-9999.0,'1111122,1111122,1111122' 
DISL,ioos:station:DISL:MHPA:1,2009-01-02T22:00:00Z,30.6671,-87.9365,8.5,5.49,164.1,-9999.0,'1111122,1111122,1111122' 
DISL,ioos:station:DISL:MHPA:1,2009-01-02T22:30:00Z,30.6671,-87.9365,8.5,5.02,172.7,-9999.0,'1111122,1111122,1111122' 
DISL,ioos:station:DISL:MHPA:1,2009-01-02T23:00:00Z,30.6671,-87.9365,8.5,4.11,163.7,-9999.0,'1111122,1111122,1111122' 
DISL,ioos:station:DISL:MHPA:1,2009-01-02T23:30:00Z,30.6671,-87.9365,8.5,3.91,167.8,-9999.0,'1111122,1111122,1111122' 
DISL,ioos:station:DISL:MHPA:1,2009-01-03T00:00:00Z,30.6671,-87.9365,8.5,4.41,164.5,-9999.0,'1111122,1111122,1111122' 
DISL,ioos:station:DISL:MHPA:1,2009-01-03T00:30:00Z,30.6671,-87.9365,8.5,3.89,165.1,-9999.0,'1111122,1111122,1111122' 
DISL,ioos:station:DISL:MHPA:1,2009-01-03T01:00:00Z,30.6671,-87.9365,8.5,3.85,166.9,-9999.0,'1111122,1111122,1111122' 
DISL,ioos:station:DISL:MHPA:1,2009-01-03T01:30:00Z,30.6671,-87.9365,8.5,3.86,164.9,-9999.0,'1111122,1111122,1111122' 
DISL,ioos:station:DISL:MHPA:1,2009-01-03T02:00:00Z,30.6671,-87.9365,8.5,2.76,165.9,-9999.0,'1111122,1111122,1111122' 
DISL,ioos:station:DISL:MHPA:1,2009-01-03T02:30:00Z,30.6671,-87.9365,8.5,4.12,172.2,-9999.0,'1111122,1111122,1111122' 
DISL,ioos:station:DISL:MHPA:1,2009-01-03T03:00:00Z,30.6671,-87.9365,8.5,4.41,168.7,-9999.0,'1111122,1111122,1111122' 
DISL,ioos:station:DISL:MHPA:1,2009-01-03T03:30:00Z,30.6671,-87.9365,8.5,3.29,173.9,-9999.0,'1111122,1111122,1111122' 
DISL,ioos:station:DISL:MHPA:1,2009-01-03T04:00:00Z,30.6671,-87.9365,8.5,4.29,165.4,-9999.0,'1111122,1111122,1111122' 
DISL,ioos:station:DISL:MHPA:1,2009-01-03T04:30:00Z,30.6671,-87.9365,8.5,2.88,163.7,-9999.0,'1111122,1111122,1111122' 
DISL,ioos:station:DISL:MHPA:1,2009-01-03T05:00:00Z,30.6671,-87.9365,8.5,3.63,160.2,-9999.0,'1111122,1111122,1111122' 
DISL,ioos:station:DISL:MHPA:1,2009-01-03T05:30:00Z,30.6671,-87.9365,8.5,2.61,164.9,-9999.0,'1111122,1111122,1111122' 
DISL,ioos:station:DISL:MHPA:1,2009-01-03T06:00:00Z,30.6671,-87.9365,8.5,3.4,162.2,-9999.0,'1111122,1111122,1111122' 
DISL,ioos:station:DISL:MHPA:1,2009-01-03T06:30:00Z,30.6671,-87.9365,8.5,3.04,172.5,-9999.0,'1111122,1111122,1111122' 
DISL,ioos:station:DISL:MHPA:1,2009-01-03T07:00:00Z,30.6671,-87.9365,8.5,2.43,166.2,-9999.0,'1111122,1111122,1111122' 
DISL,ioos:station:DISL:MHPA:1,2009-01-03T07:30:00Z,30.6671,-87.9365,8.5,2.38,175.3,-9999.0,'1111122,1111122,1111122' 
DISL,ioos:station:DISL:MHPA:1,2009-01-03T08:00:00Z,30.6671,-87.9365,8.5,2.12,175.8,-9999.0,'1111122,1111122,1111122' 
DISL,ioos:station:DISL:MHPA:1,2009-01-03T08:30:00Z,30.6671,-87.9365,8.5,1.77,179.3,-9999.0,'1111122,1111122,1111122' 
DISL,ioos:station:DISL:MHPA:1,2009-01-03T09:00:00Z,30.6671,-87.9365,8.5,1.35,197.3,-9999.0,'1111122,1111122,1111122' 
DISL,ioos:station:DISL:MHPA:1,2009-01-03T09:30:00Z,30.6671,-87.9365,8.5,0.87,166.1,-9999.0,'1111122,1111122,1111122' 
DISL,ioos:station:DISL:MHPA:1,2009-01-03T10:00:00Z,30.6671,-87.9365,8.5,0.89,124.1,-9999.0,'1111122,1111122,1111122' 
DISL,ioos:station:DISL:MHPA:1,2009-01-03T10:30:00Z,30.6671,-87.9365,8.5,0.92,143.0,-9999.0,'1111122,1111122,1111122' 
DISL,ioos:station:DISL:MHPA:1,2009-01-03T11:00:00Z,30.6671,-87.9365,8.5,0.67,323.7,-9999.0,'1111122,1111122,1111122' 
DISL,ioos:station:DISL:MHPA:1,2009-01-03T11:30:00Z,30.6671,-87.9365,8.5,0.13,11.45,-9999.0,'1111122,1111122,1111122' 
DISL,ioos:station:DISL:MHPA:1,2009-01-03T12:00:00Z,30.6671,-87.9365,8.5,0.0,0.0,-9999.0,'1114422,1114422,1111122' 
DISL,ioos:station:DISL:MHPA:1,2009-01-03T12:30:00Z,30.6671,-87.9365,8.5,2.03,117.1,-9999.0,'1111122,1111122,1111122' 
DISL,ioos:station:DISL:MHPA:1,2009-01-03T13:00:00Z,30.6671,-87.9365,8.5,2.24,113.8,-9999.0,'1111122,1111122,1111122' 
DISL,ioos:station:DISL:MHPA:1,2009-01-03T13:30:00Z,30.6671,-87.9365,8.5,2.56,110.2,-9999.0,'1111122,1111122,1111122' 
DISL,ioos:station:DISL:MHPA:1,2009-01-03T14:00:00Z,30.6671,-87.9365,8.5,2.7,115.5,-9999.0,'1111122,1111122,1111122' 
DISL,ioos:station:DISL:MHPA:1,2009-01-03T14:30:00Z,30.6671,-87.9365,8.5,2.03,127.1,-9999.0,'1111122,1111122,1111122' 
DISL,ioos:station:DISL:MHPA:1,2009-01-03T15:00:00Z,30.6671,-87.9365,8.5,3.28,142.0,-9999.0,'1111122,1111122,1111122' 
DISL,ioos:station:DISL:MHPA:1,2009-01-03T15:30:00Z,30.6671,-87.9365,8.5,3.11,143.2,-9999.0,'1111122,1111122,1111122' 
DISL,ioos:station:DISL:MHPA:1,2009-01-03T16:00:00Z,30.6671,-87.9365,8.5,3.1,159.1,-9999.0,'1111122,1111122,1111122' 
DISL,ioos:station:DISL:MHPA:1,2009-01-03T16:30:00Z,30.6671,-87.9365,8.5,3.41,165.3,-9999.0,'1111122,1111122,1111122' 
DISL,ioos:station:DISL:MHPA:1,2009-01-03T17:00:00Z,30.6671,-87.9365,8.5,3.31,220.4,-9999.0,'1111122,1111122,1111122' 
DISL,ioos:station:DISL:MHPA:1,2009-01-03T17:30:00Z,30.6671,-87.9365,8.5,4.48,180.5,-9999.0,'1111122,1111122,1111122' 
DISL,ioos:station:DISL:MHPA:1,2009-01-03T18:00:00Z,30.6671,-87.9365,8.5,6.12,169.7,-9999.0,'1111122,1111122,1111122' 
DISL,ioos:station:DISL:MHPA:1,2009-01-03T18:30:00Z,30.6671,-87.9365,8.5,6.91,167.5,-9999.0,'1111122,1111122,1111122' 
DISL,ioos:station:DISL:MHPA:1,2009-01-03T19:00:00Z,30.6671,-87.9365,8.5,7.1,170.1,-9999.0,'1111122,1111122,1111122' 
DISL,ioos:station:DISL:MHPA:1,2009-01-03T19:30:00Z,30.6671,-87.9365,8.5,7.05,171.1,-9999.0,'1111122,1111122,1111122' 
DISL,ioos:station:DISL:MHPA:1,2009-01-03T20:00:00Z,30.6671,-87.9365,8.5,7.0,164.6,-9999.0,'1111122,1111122,1111122' 
DISL,ioos:station:DISL:MHPA:1,2009-01-03T20:30:00Z,30.6671,-87.9365,8.5,5.96,168.9,-9999.0,'1111122,1111122,1111122' 
DISL,ioos:station:DISL:MHPA:1,2009-01-03T21:00:00Z,30.6671,-87.9365,8.5,5.75,169.0,-9999.0,'1111122,1111122,1111122' 
DISL,ioos:station:DISL:MHPA:1,2009-01-03T21:30:00Z,30.6671,-87.9365,8.5,5.91,166.1,-9999.0,'1111122,1111122,1111122' 
DISL,ioos:station:DISL:MHPA:1,2009-01-03T22:00:00Z,30.6671,-87.9365,8.5,5.92,168.8,-9999.0,'1111122,1111122,1111122' 
DISL,ioos:station:DISL:MHPA:1,2009-01-03T22:30:00Z,30.6671,-87.9365,8.5,6.5,161.8,-9999.0,'1111122,1111122,1111122' 
DISL,ioos:station:DISL:MHPA:1,2009-01-03T23:00:00Z,30.6671,-87.9365,8.5,5.57,160.8,-9999.0,'1111122,1111122,1111122' 
DISL,ioos:station:DISL:MHPA:1,2009-01-03T23:30:00Z,30.6671,-87.9365,8.5,5.72,153.8,-9999.0,'1111122,1111122,1111122' 
DISL,ioos:station:DISL:MHPA:1,2009-01-04T00:00:00Z,30.6671,-87.9365,8.5,2.58,235.8,-9999.0,'1111122,1111122,1111122' 
DISL,ioos:station:DISL:MHPA:1,2009-01-04T00:30:00Z,30.6671,-87.9365,8.5,2.48,0.367,-9999.0,'1111122,1111122,1111122' 
DISL,ioos:station:DISL:MHPA:1,2009-01-04T01:00:00Z,30.6671,-87.9365,8.5,2.05,35.73,-9999.0,'1111122,1111122,1111122' 
DISL,ioos:station:DISL:MHPA:1,2009-01-04T01:30:00Z,30.6671,-87.9365,8.5,1.19,68.59,-9999.0,'1111122,1111122,1111122' 
DISL,ioos:station:DISL:MHPA:1,2009-01-04T02:00:00Z,30.6671,-87.9365,8.5,1.54,122.2,-9999.0,'1111122,1111122,1111122' 
DISL,ioos:station:DISL:MHPA:1,2009-01-04T02:30:00Z,30.6671,-87.9365,8.5,1.89,117.1,-9999.0,'1111122,1111122,1111122' 
DISL,ioos:station:DISL:MHPA:1,2009-01-04T03:00:00Z,30.6671,-87.9365,8.5,2.58,108.5,-9999.0,'1111122,1111122,1111122' 
DISL,ioos:station:DISL:MHPA:1,2009-01-04T03:30:00Z,30.6671,-87.9365,8.5,2.29,98.0,-9999.0,'1111122,1111122,1111122' 
DISL,ioos:station:DISL:MHPA:1,2009-01-04T04:00:00Z,30.6671,-87.9365,8.5,2.79,129.8,-9999.0,'1111122,1111122,1111122' 
DISL,ioos:station:DISL:MHPA:1,2009-01-04T04:30:00Z,30.6671,-87.9365,8.5,4.55,134.6,-9999.0,'1111122,1111122,1111122' 
DISL,ioos:station:DISL:MHPA:1,2009-01-04T05:00:00Z,30.6671,-87.9365,8.5,4.31,136.7,-9999.0,'1111122,1111122,1111122' 
DISL,ioos:station:DISL:MHPA:1,2009-01-04T05:30:00Z,30.6671,-87.9365,8.5,2.61,140.7,-9999.0,'1111122,1111122,1111122' 
DISL,ioos:station:DISL:MHPA:1,2009-01-04T06:00:00Z,30.6671,-87.9365,8.5,4.85,156.4,-9999.0,'1111122,1111122,1111122' 
DISL,ioos:station:DISL:MHPA:1,2009-01-04T06:30:00Z,30.6671,-87.9365,8.5,6.39,165.1,-9999.0,'1111122,1111122,1111122' 
DISL,ioos:station:DISL:MHPA:1,2009-01-04T07:00:00Z,30.6671,-87.9365,8.5,9.01,155.1,-9999.0,'1111122,1111122,1111122' 
DISL,ioos:station:DISL:MHPA:1,2009-01-04T07:30:00Z,30.6671,-87.9365,8.5,5.0,157.5,-9999.0,'1111122,1111122,1111122' 
DISL,ioos:station:DISL:MHPA:1,2009-01-04T08:00:00Z,30.6671,-87.9365,8.5,4.6,228.1,-9999.0,'1111122,1111122,1111122' 
DISL,ioos:station:DISL:MHPA:1,2009-01-04T08:30:00Z,30.6671,-87.9365,8.5,3.12,188.8,-9999.0,'1111122,1111122,1111122' 
DISL,ioos:station:DISL:MHPA:1,2009-01-04T09:00:00Z,30.6671,-87.9365,8.5,1.39,144.6,-9999.0,'1111122,1111122,1111122' 
DISL,ioos:station:DISL:MHPA:1,2009-01-04T09:30:00Z,30.6671,-87.9365,8.5,0.71,12.85,-9999.0,'1111122,1111122,1111122' 
DISL,ioos:station:DISL:MHPA:1,2009-01-04T10:00:00Z,30.6671,-87.9365,8.5,0.0,0.0,-9999.0,'1114422,1114422,1111122' 
DISL,ioos:station:DISL:MHPA:1,2009-01-04T10:30:00Z,30.6671,-87.9365,8.5,0.71,59.52,-9999.0,'1111122,1111122,1111122' 
DISL,ioos:station:DISL:MHPA:1,2009-01-04T11:00:00Z,30.6671,-87.9365,8.5,0.42,98.2,-9999.0,'1111122,1111122,1111122' 
DISL,ioos:station:DISL:MHPA:1,2009-01-04T11:30:00Z,30.6671,-87.9365,8.5,0.0,0.0,-9999.0,'1114422,1114422,1111122' 
DISL,ioos:station:DISL:MHPA:1,2009-01-04T12:00:00Z,30.6671,-87.9365,8.5,0.86,132.6,-9999.0,'1111122,1111122,1111122' 
DISL,ioos:station:DISL:MHPA:1,2009-01-04T12:30:00Z,30.6671,-87.9365,8.5,1.08,102.4,-9999.0,'1111122,1111122,1111122' 
DISL,ioos:station:DISL:MHPA:1,2009-01-04T13:00:00Z,30.6671,-87.9365,8.5,1.83,105.1,-9999.0,'1111122,1111122,1111122' 
DISL,ioos:station:DISL:MHPA:1,2009-01-04T13:30:00Z,30.6671,-87.9365,8.5,1.25,123.3,-9999.0,'1111122,1111122,1111122' 
DISL,ioos:station:DISL:MHPA:1,2009-01-04T14:00:00Z,30.6671,-87.9365,8.5,1.88,124.1,-9999.0,'1111122,1111122,1111122' 
DISL,ioos:station:DISL:MHPA:1,2009-01-04T14:30:00Z,30.6671,-87.9365,8.5,1.61,153.3,-9999.0,'1111122,1111122,1111122' 
DISL,ioos:station:DISL:MHPA:1,2009-01-04T15:00:00Z,30.6671,-87.9365,8.5,0.33,258.1,-9999.0,'1111122,1111122,1111122' 
DISL,ioos:station:DISL:MHPA:1,2009-01-04T15:30:00Z,30.6671,-87.9365,8.5,0.71,261.6,-9999.0,'1111122,1111122,1111122' 
DISL,ioos:station:DISL:MHPA:1,2009-01-04T16:00:00Z,30.6671,-87.9365,8.5,1.25,252.6,-9999.0,'1111122,1111122,1111122' 
DISL,ioos:station:DISL:MHPA:1,2009-01-04T16:30:00Z,30.6671,-87.9365,8.5,1.42,225.1,-9999.0,'1111122,1111122,1111122' 
DISL,ioos:station:DISL:MHPA:1,2009-01-04T17:00:00Z,30.6671,-87.9365,8.5,1.27,259.8,-9999.0,'1111122,1111122,1111122' 
DISL,ioos:station:DISL:MHPA:1,2009-01-04T17:30:00Z,30.6671,-87.9365,8.5,1.92,264.3,-9999.0,'1111122,1111122,1111122' 
DISL,ioos:station:DISL:MHPA:1,2009-01-04T18:00:00Z,30.6671,-87.9365,8.5,1.38,249.9,-9999.0,'1111122,1111122,1111122' 
DISL,ioos:station:DISL:MHPA:1,2009-01-04T18:30:00Z,30.6671,-87.9365,8.5,0.63,136.8,-9999.0,'1111122,1111122,1111122' 
DISL,ioos:station:DISL:MHPA:1,2009-01-04T19:00:00Z,30.6671,-87.9365,8.5,1.23,176.6,-9999.0,'1111122,1111122,1111122' 
DISL,ioos:station:DISL:MHPA:1,2009-01-04T19:30:00Z,30.6671,-87.9365,8.5,1.12,200.9,-9999.0,'1111122,1111122,1111122' 
DISL,ioos:station:DISL:MHPA:1,2009-01-04T20:00:00Z,30.6671,-87.9365,8.5,3.6,200.2,-9999.0,'1111122,1111122,1111122' 
DISL,ioos:station:DISL:MHPA:1,2009-01-04T20:30:00Z,30.6671,-87.9365,8.5,4.65,196.7,-9999.0,'1111122,1111122,1111122' 
DISL,ioos:station:DISL:MHPA:1,2009-01-04T21:00:00Z,30.6671,-87.9365,8.5,3.32,191.8,-9999.0,'1111122,1111122,1111122' 
DISL,ioos:station:DISL:MHPA:1,2009-01-04T21:30:00Z,30.6671,-87.9365,8.5,3.48,188.3,-9999.0,'1111122,1111122,1111122' 
DISL,ioos:station:DISL:MHPA:1,2009-01-04T22:00:00Z,30.6671,-87.9365,8.5,3.23,179.6,-9999.0,'1111122,1111122,1111122' 
DISL,ioos:station:DISL:MHPA:1,2009-01-04T22:30:00Z,30.6671,-87.9365,8.5,2.1,173.9,-9999.0,'1111122,1111122,1111122' 
DISL,ioos:station:DISL:MHPA:1,2009-01-04T23:00:00Z,30.6671,-87.9365,8.5,1.8,170.9,-9999.0,'1111122,1111122,1111122' 
DISL,ioos:station:DISL:MHPA:1,2009-01-04T23:30:00Z,30.6671,-87.9365,8.5,1.32,163.8,-9999.0,'1111122,1111122,1111122' 
DISL,ioos:station:DISL:MHPA:1,2009-01-05T00:00:00Z,30.6671,-87.9365,8.5,1.11,146.7,-9999.0,'1111122,1111122,1111122' 
DISL,ioos:station:DISL:MHPA:1,2009-01-05T00:30:00Z,30.6671,-87.9365,8.5,1.28,159.3,-9999.0,'1111122,1111122,1111122' 
DISL,ioos:station:DISL:MHPA:1,2009-01-05T01:00:00Z,30.6671,-87.9365,8.5,0.37,156.7,-9999.0,'1111122,1111122,1111122' 
DISL,ioos:station:DISL:MHPA:1,2009-01-05T01:30:00Z,30.6671,-87.9365,8.5,0.0,0.0,-9999.0,'1114422,1114422,1111122' 
DISL,ioos:station:DISL:MHPA:1,2009-01-05T02:00:00Z,30.6671,-87.9365,8.5,0.43,75.9,-9999.0,'1111122,1111122,1111122' 
DISL,ioos:station:DISL:MHPA:1,2009-01-05T02:30:00Z,30.6671,-87.9365,8.5,0.0,0.0,-9999.0,'1114422,1114422,1111122' 
DISL,ioos:station:DISL:MHPA:1,2009-01-05T03:00:00Z,30.6671,-87.9365,8.5,1.07,125.2,-9999.0,'1111122,1111122,1111122' 
DISL,ioos:station:DISL:MHPA:1,2009-01-05T03:30:00Z,30.6671,-87.9365,8.5,0.17,82.4,-9999.0,'1111122,1111122,1111122' 
DISL,ioos:station:DISL:MHPA:1,2009-01-05T04:00:00Z,30.6671,-87.9365,8.5,0.0,0.0,-9999.0,'1114422,1114422,1111122' 
DISL,ioos:station:DISL:MHPA:1,2009-01-05T04:30:00Z,30.6671,-87.9365,8.5,2.34,123.1,-9999.0,'1111122,1111122,1111122' 
DISL,ioos:station:DISL:MHPA:1,2009-01-05T05:00:00Z,30.6671,-87.9365,8.5,2.33,104.5,-9999.0,'1111122,1111122,1111122' 
DISL,ioos:station:DISL:MHPA:1,2009-01-05T05:30:00Z,30.6671,-87.9365,8.5,2.61,119.5,-9999.0,'1111122,1111122,1111122' 
DISL,ioos:station:DISL:MHPA:1,2009-01-05T06:00:00Z,30.6671,-87.9365,8.5,2.36,132.0,-9999.0,'1111122,1111122,1111122' 
DISL,ioos:station:DISL:MHPA:1,2009-01-05T06:30:00Z,30.6671,-87.9365,8.5,1.92,151.8,-9999.0,'1111122,1111122,1111122' 
DISL,ioos:station:DISL:MHPA:1,2009-01-05T07:00:00Z,30.6671,-87.9365,8.5,0.95,233.7,-9999.0,'1111122,1111122,1111122' 
DISL,ioos:station:DISL:MHPA:1,2009-01-05T07:30:00Z,30.6671,-87.9365,8.5,0.04,171.0,-9999.0,'1111122,1111122,1111122' 
DISL,ioos:station:DISL:MHPA:1,2009-01-05T08:00:00Z,30.6671,-87.9365,8.5,0.0,0.0,-9999.0,'1114422,1114422,1111122' 
DISL,ioos:station:DISL:MHPA:1,2009-01-05T08:30:00Z,30.6671,-87.9365,8.5,1.09,154.7,-9999.0,'1111122,1111122,1111122' 
DISL,ioos:station:DISL:MHPA:1,2009-01-05T09:00:00Z,30.6671,-87.9365,8.5,0.0,0.0,-9999.0,'1114422,1114422,1111122' 
DISL,ioos:station:DISL:MHPA:1,2009-01-05T09:30:00Z,30.6671,-87.9365,8.5,1.09,174.3,-9999.0,'1111122,1111122,1111122' 
DISL,ioos:station:DISL:MHPA:1,2009-01-05T10:00:00Z,30.6671,-87.9365,8.5,1.02,327.5,-9999.0,'1111122,1111122,1111122' 
DISL,ioos:station:DISL:MHPA:1,2009-01-05T10:30:00Z,30.6671,-87.9365,8.5,0.0,0.0,-9999.0,'1114422,1114422,1111122' 
DISL,ioos:station:DISL:MHPA:1,2009-01-05T11:00:00Z,30.6671,-87.9365,8.5,0.78,173.2,-9999.0,'1111122,1111122,1111122' 
DISL,ioos:station:DISL:MHPA:1,2009-01-05T11:30:00Z,30.6671,-87.9365,8.5,1.95,130.9,-9999.0,'1111122,1111122,1111122' 